EZY425 EGKK-LSGG

Flight info

Callsign EZY425
Flight time 1h 12m
Altitude 31000
Route SFD Y47 BENBO L612 HAWKE UL612 VEULE DCT PEKIM DCT PILUL DCT PIMUP/N0441F270 DCT PIXIS DCT PIBAT DCT LUSAR
Aircraft A320/M-SDE3FGHIRWY/LB1

Departure

Time 2026-05-04 16:19
Airport London Gatwick Airport (EGKK)

Arrival

Time 2026-05-04 17:31
Airport Geneva International Airport (LSGG)
Time Latitude Longitude Altitude Speed Heading
2026-05-04 15:49 51.15641 -0.17854 205 ft 0 kts 168°
2026-05-04 16:05 51.15680 -0.17864 211 ft 4 kts 179°
2026-05-04 16:06 51.15706 -0.17859 217 ft 4 kts 212°
2026-05-04 16:06 51.15717 -0.17842 217 ft 0 kts 255°
2026-05-04 16:08 51.15717 -0.17843 217 ft 2 kts 255°
2026-05-04 16:08 51.15666 -0.18207 211 ft 12 kts 258°
2026-05-04 16:09 51.15630 -0.18472 215 ft 19 kts 258°
2026-05-04 16:09 51.15544 -0.18827 213 ft 15 kts 187°
2026-05-04 16:10 51.15365 -0.18767 207 ft 11 kts 167°
2026-05-04 16:11 51.15131 -0.18742 213 ft 12 kts 244°
2026-05-04 16:11 51.15110 -0.18882 214 ft 12 kts 258°
2026-05-04 16:12 51.15026 -0.19473 212 ft 24 kts 256°
2026-05-04 16:12 51.14914 -0.20309 205 ft 28 kts 257°
2026-05-04 16:13 51.14829 -0.20928 213 ft 28 kts 257°
2026-05-04 16:13 51.14749 -0.21390 215 ft 14 kts 232°
2026-05-04 16:14 51.14665 -0.21364 217 ft 6 kts 140°
2026-05-04 16:14 51.14608 -0.21327 205 ft 0 kts 167°
2026-05-04 16:17 51.14518 -0.21202 210 ft 13 kts 94°
2026-05-04 16:18 51.14530 -0.21102 210 ft 0 kts 77°
2026-05-04 16:18 51.14558 -0.20906 213 ft 53 kts 77°
2026-05-04 16:19 51.15131 -0.16703 878 ft 161 kts 77°
2026-05-04 16:19 51.15622 -0.12991 1861 ft 190 kts 78°
2026-05-04 16:20 51.15626 -0.06021 3474 ft 236 kts 129°
2026-05-04 16:20 51.12428 -0.03717 4637 ft 269 kts 170°
2026-05-04 16:21 51.06799 -0.02183 7257 ft 278 kts 167°
2026-05-04 16:22 51.03043 -0.00555 9018 ft 283 kts 165°
2026-05-04 16:22 50.97293 0.02197 11437 ft 291 kts 164°
2026-05-04 16:23 50.91390 0.04998 13707 ft 301 kts 165°
2026-05-04 16:24 50.83229 0.08836 16409 ft 311 kts 165°
2026-05-04 16:25 50.79042 0.10795 17750 ft 316 kts 165°
2026-05-04 16:26 50.69996 0.10011 19013 ft 360 kts 194°
2026-05-04 16:26 50.62308 0.07200 19798 ft 390 kts 193°
2026-05-04 16:27 50.56994 0.05285 20814 ft 394 kts 193°
2026-05-04 16:28 50.48914 0.02725 22274 ft 400 kts 184°
2026-05-04 16:28 50.40763 0.05633 23643 ft 412 kts 153°
2026-05-04 16:29 50.31075 0.15552 25117 ft 420 kts 149°
2026-05-04 16:30 50.23705 0.23125 26205 ft 425 kts 149°
2026-05-04 16:31 50.18737 0.28216 26882 ft 428 kts 149°
2026-05-04 16:31 50.11263 0.35907 27839 ft 432 kts 149°
2026-05-04 16:32 50.03666 0.43672 28756 ft 437 kts 149°
2026-05-04 16:33 49.98630 0.48820 29627 ft 434 kts 149°
2026-05-04 16:33 49.93590 0.53957 30408 ft 431 kts 150°
2026-05-04 16:34 49.88587 0.59035 30942 ft 432 kts 150°
2026-05-04 16:34 49.86085 0.61640 30982 ft 433 kts 146°
2026-05-04 16:35 49.72736 0.80805 30972 ft 437 kts 141°
2026-05-04 16:36 49.66097 0.90390 30965 ft 437 kts 141°
2026-05-04 16:37 49.59449 0.99971 30954 ft 437 kts 141°
2026-05-04 16:38 49.50550 1.12738 30950 ft 437 kts 141°
2026-05-04 16:39 49.39409 1.28618 30948 ft 437 kts 141°
2026-05-04 16:40 49.30485 1.41261 30947 ft 437 kts 142°
2026-05-04 16:41 49.19295 1.57042 30930 ft 437 kts 142°
2026-05-04 16:43 49.08080 1.72732 30922 ft 438 kts 142°
2026-05-04 16:43 49.01316 1.82159 30917 ft 438 kts 142°
2026-05-04 16:45 48.87777 2.00891 30918 ft 439 kts 142°
2026-05-04 16:46 48.76459 2.16472 30924 ft 440 kts 142°
2026-05-04 16:47 48.67373 2.28862 30923 ft 440 kts 143°
2026-05-04 16:48 48.59056 2.40198 30918 ft 440 kts 143°
2026-05-04 16:49 48.49944 2.52544 30918 ft 441 kts 143°
2026-05-04 16:50 48.40774 2.64884 30913 ft 442 kts 143°
2026-05-04 16:51 48.33908 2.74100 30902 ft 442 kts 144°
2026-05-04 16:52 48.24641 2.86216 30896 ft 441 kts 147°
2026-05-04 16:53 48.17298 2.94564 30895 ft 441 kts 149°
2026-05-04 16:54 48.07397 3.05283 30891 ft 435 kts 158°
2026-05-04 16:55 47.90807 3.15834 30896 ft 433 kts 162°
2026-05-04 16:56 47.76922 3.24532 30886 ft 433 kts 163°
2026-05-04 16:57 47.68575 3.29739 30880 ft 434 kts 163°
2026-05-04 16:58 47.57422 3.36650 30884 ft 435 kts 163°
2026-05-04 17:00 47.40613 3.47013 30882 ft 437 kts 163°
2026-05-04 17:01 47.26575 3.55624 30882 ft 439 kts 163°
2026-05-04 17:02 47.15267 3.62514 30888 ft 440 kts 163°
2026-05-04 17:03 47.06769 3.67676 30900 ft 441 kts 163°
2026-05-04 17:03 46.98355 3.73126 30897 ft 449 kts 153°
2026-05-04 17:04 46.93683 3.79393 30899 ft 466 kts 131°
2026-05-04 17:04 46.90731 3.87901 30897 ft 478 kts 115°
2026-05-04 17:05 46.85902 4.06066 30904 ft 479 kts 115°
2026-05-04 17:06 46.82279 4.19620 30918 ft 479 kts 115°
2026-05-04 17:07 46.79693 4.32031 30927 ft 484 kts 105°
2026-05-04 17:07 46.78085 4.43215 30931 ft 483 kts 105°
2026-05-04 17:08 46.75975 4.57628 30941 ft 483 kts 106°
2026-05-04 17:09 46.74556 4.67166 30950 ft 483 kts 106°
2026-05-04 17:09 46.73123 4.76745 30950 ft 483 kts 106°
2026-05-04 17:10 46.69536 5.00588 28304 ft 482 kts 106°
2026-05-04 17:11 46.68819 5.05308 27377 ft 482 kts 106°
2026-05-04 17:11 46.68089 5.10084 26561 ft 479 kts 106°
2026-05-04 17:11 46.66666 5.19436 25269 ft 467 kts 107°
2026-05-04 17:12 46.65970 5.24040 24660 ft 462 kts 106°
2026-05-04 17:12 46.64619 5.33011 23420 ft 452 kts 107°
2026-05-04 17:13 46.62610 5.46250 21403 ft 440 kts 106°
2026-05-04 17:14 46.60616 5.59129 19540 ft 430 kts 106°
2026-05-04 17:14 46.59953 5.63360 18922 ft 426 kts 106°
2026-05-04 17:14 46.58637 5.71663 17705 ft 420 kts 105°
2026-05-04 17:15 46.57861 5.75718 17129 ft 413 kts 114°
2026-05-04 17:15 46.55135 5.82472 16034 ft 397 kts 134°
2026-05-04 17:16 46.51038 5.87538 14983 ft 384 kts 148°
2026-05-04 17:16 46.44631 5.93968 14056 ft 349 kts 148°
2026-05-04 17:17 46.42697 5.95912 13929 ft 324 kts 148°
2026-05-04 17:17 46.37664 6.01559 12909 ft 305 kts 128°
2026-05-04 17:18 46.36812 6.04375 12582 ft 309 kts 104°
2026-05-04 17:18 46.37649 6.10395 11920 ft 315 kts 55°
2026-05-04 17:19 46.40648 6.14989 11194 ft 315 kts 46°
2026-05-04 17:19 46.43722 6.19467 10527 ft 312 kts 46°
2026-05-04 17:20 46.46764 6.23926 9902 ft 309 kts 46°
2026-05-04 17:20 46.49770 6.28374 9245 ft 307 kts 46°
2026-05-04 17:20 46.51228 6.30540 9091 ft 290 kts 48°
2026-05-04 17:21 46.52407 6.35483 8570 ft 256 kts 105°
2026-05-04 17:21 46.50600 6.39558 7909 ft 240 kts 140°
2026-05-04 17:22 46.49404 6.41237 7634 ft 236 kts 140°
2026-05-04 17:22 46.48200 6.42717 7424 ft 219 kts 156°
2026-05-04 17:23 46.44566 6.41567 6829 ft 171 kts 224°
2026-05-04 17:23 46.43771 6.40384 6628 ft 155 kts 223°
2026-05-04 17:23 46.42399 6.38349 6249 ft 139 kts 223°
2026-05-04 17:24 46.41721 6.37344 6059 ft 139 kts 223°
2026-05-04 17:24 46.39696 6.34342 5482 ft 139 kts 223°
2026-05-04 17:25 46.39019 6.33339 5320 ft 139 kts 223°
2026-05-04 17:25 46.37679 6.31354 4959 ft 138 kts 223°
2026-05-04 17:26 46.36332 6.29362 4584 ft 138 kts 224°
2026-05-04 17:26 46.34320 6.26387 4031 ft 138 kts 224°
2026-05-04 17:27 46.32972 6.24396 3664 ft 138 kts 225°
2026-05-04 17:27 46.31616 6.22395 3287 ft 139 kts 225°
2026-05-04 17:28 46.30267 6.20405 2917 ft 140 kts 225°
2026-05-04 17:29 46.28196 6.17355 2314 ft 143 kts 225°
2026-05-04 17:29 46.26153 6.14343 1733 ft 138 kts 226°
2026-05-04 17:30 46.24313 6.11636 1387 ft 62 kts 225°
2026-05-04 17:31 46.23930 6.11093 1402 ft 25 kts 210°
2026-05-04 17:31 46.23639 6.10980 1387 ft 13 kts 227°
2026-05-04 17:32 46.23503 6.10781 1387 ft 13 kts 225°
2026-05-04 17:33 46.23431 6.10802 1389 ft 2 kts 136°
2026-05-04 17:33 46.23424 6.10812 1387 ft 1 kts 136°
2026-05-04 17:34 46.23423 6.10812 1387 ft 0 kts 136°